Flag for U.S.A. Weather past 2 weeks in Modesto, California, U.S.A.

Now
77 °F

Sunny.


Feels Like: 78 °F
Forecast: 67 / 93 °F
Wind: 7 mph from Northwest

Location: Modesto City-County-Sham Field

Current Time: Aug 1, 2015 at 10:15:11 AM

Latest Report: Aug 1, 2015 at 9:53 AM


Visibility: 10 mi

Pressure: 29.95 "Hg

Humidity: 47%

Dew point: 55 °F

Location of ModestoLocation

Historic Weather in Modesto — Graph

°F

Modesto temperature yesterday

Maximum temperature yesterday: 94 °F (at 2:53 PM)
Minimum temperature yesterday: 73 °F (at 5:53 AM)
Average temperature yesterday: 82 °F

Past Weeks' High & Low Weather Summary

 TemperatureHumidityPressure
High105 °F (Jul 29, 4:53 PM)70% (Jul 23, 5:53 AM)30.08 "Hg (Jul 23, 5:53 AM)
Low60 °F (Jul 24, 4:53 AM)10% (Jul 22, 4:53 PM)29.67 "Hg (Jul 17, 6:53 PM)
Average81 °F38%29.88 "Hg
* Reported Jul 17 8:53 AM — Aug 1 8:53 AM, Modesto, Weather by CustomWeather, © 2015

Note: Actual official high and low records may vary slightly from our data, if they occured in-between our weather recording intervals... More about our weather records

Advertising

Modesto weather history for previous 24 hours

 ConditionsComfort  
Time TempWeatherWind HumidityBarometerVisibility
8:53 AM
Sat, Aug 1
73 °FSunny.9 mph53%29.96 "Hg10 mi
7:53 AM70 °FSunny.9 mph57%29.96 "Hg10 mi
6:53 AM68 °FClear.5 mph59%29.95 "Hg10 mi
5:53 AM68 °FClear.3 mph57%29.93 "Hg10 mi
4:53 AM69 °FClear.3 mph55%29.91 "Hg10 mi
3:53 AM69 °FClear.3 mph53%29.90 "Hg10 mi
2:53 AM70 °FClear.5 mph51%29.90 "Hg10 mi
1:53 AM70 °FClear.6 mph51%29.90 "Hg10 mi
12:53 AM72 °FClear.8 mph46%29.90 "Hg10 mi
11:53 PM
Fri, Jul 31
73 °FClear.7 mph46%29.90 "Hg10 mi
10:53 PM74 °FClear.12 mph40%29.89 "Hg10 mi
9:53 PM79 °FClear.13 mph31%29.88 "Hg10 mi
8:53 PM82 °FSunny.14 mph27%29.86 "Hg10 mi
7:53 PM86 °FSunny.13 mph23%29.85 "Hg10 mi
6:53 PM90 °FSunny.17 mph27%29.84 "Hg10 mi
5:53 PM92 °FSunny.16 mph29%29.84 "Hg10 mi
4:53 PM94 °FSunny.16 mph29%29.85 "Hg10 mi
3:53 PM94 °FSunny.13 mph27%29.86 "Hg10 mi
2:53 PM94 °FSunny.14 mph26%29.88 "Hg10 mi
1:53 PM93 °FSunny.10 mph26%29.90 "Hg10 mi
12:53 PM89 °FSunny.13 mph30%29.92 "Hg10 mi
11:53 AM86 °FSunny.12 mph28%29.93 "Hg10 mi
10:53 AM82 °FSunny.13 mph35%29.94 "Hg10 mi
Weather by CustomWeather, © 2015

See weather overviewHow to use our weather pages